sat.trackr.live / text

‹ back to catalog

STARLINK-3712

NORAD 52090 · 2022-029C

PAYLOAD ACTIVE UNKNOWN

§ Identity

Operator
Country
US
Launch date
2022-03-19
Launch site
AFETR
Launch vehicle
Mass (kg)
RCS (m²)

Purposes: comms

External: N2YO · Heavens-Above · Gunter

§ Orbital elements

Epoch: 2026-05-25T04:30:37.060416Z

Period
95.44 min
Inclination
53.2119°
Eccentricity
0.0000810
Mean motion
15.08853553 rev/d
Perigee alt
539.1 km
Apogee alt
540.3 km
Semi-major
6,917.8 km
B*
3.5530e-5
RAAN
105.7045°
Arg perigee
71.7930°
Mean anomaly
288.3150°
Rev number
23,220

§ Raw data

STARLINK-37121 52090U 22029C   26145.18792894  .00000278  00000+0  35530-4 0  99932 52090  53.2119 105.7045 0000810  71.7930 288.3150 15.08853553232206

JSON: /api/v1/satellites/52090 · /tle

For live sub-satellite position, see the globe view (requires WebGL).

§ Visibility from observer

Set your observer location to see the next 7 days of passes ≥ 10°. The values pass through the URL so the page stays shareable.

No JS? Fill the form by hand. The geolocation button needs JavaScript.